#datetime,building,power
2022-10-09T00:01:00,pth,3.60
2022-10-09T00:03:00,pth,1.20
2022-10-09T00:05:00,pth,2.40
2022-10-09T00:07:00,pth,2.40
2022-10-09T00:09:00,pth,2.40
2022-10-09T00:10:00,pth,1.20
2022-10-09T00:12:00,pth,2.40
2022-10-09T00:14:00,pth,2.40
2022-10-09T00:15:00,pth,1.20
2022-10-09T00:16:00,pth,1.20
2022-10-09T00:18:00,pth,2.40
2022-10-09T00:19:00,pth,1.20
2022-10-09T00:21:00,pth,2.40
2022-10-09T00:22:00,pth,1.20
2022-10-09T00:24:00,pth,2.40
2022-10-09T00:26:00,pth,2.40
2022-10-09T00:28:00,pth,2.40
2022-10-09T00:29:00,pth,1.20
2022-10-09T00:31:00,pth,1.20
2022-10-09T00:33:00,pth,2.40
2022-10-09T00:35:00,pth,2.40
2022-10-09T00:37:00,pth,2.40
2022-10-09T00:39:00,pth,2.40
2022-10-09T00:41:00,pth,1.20
2022-10-09T00:42:00,pth,1.20
2022-10-09T00:44:00,pth,2.40
2022-10-09T00:46:00,pth,1.20
2022-10-09T00:48:00,pth,2.40
2022-10-09T00:50:00,pth,2.40
2022-10-09T00:51:00,pth,1.20
2022-10-09T00:54:00,pth,2.40
2022-10-09T00:56:00,pth,2.40
2022-10-09T00:58:00,pth,2.40
2022-10-09T01:00:00,pth,2.40
2022-10-09T01:02:00,pth,2.40
2022-10-09T01:03:00,pth,1.20
2022-10-09T01:05:00,pth,2.40
2022-10-09T01:07:00,pth,2.40
2022-10-09T01:09:00,pth,2.40
2022-10-09T01:11:00,pth,1.20
2022-10-09T01:12:00,pth,1.20
2022-10-09T01:14:00,pth,2.40
2022-10-09T01:16:00,pth,2.40
2022-10-09T01:17:00,pth,1.20
2022-10-09T01:19:00,pth,2.40
2022-10-09T01:21:00,pth,2.40
2022-10-09T01:23:00,pth,2.40
2022-10-09T01:25:00,pth,1.20
2022-10-09T01:27:00,pth,2.40
2022-10-09T01:28:00,pth,1.20
2022-10-09T01:30:00,pth,2.40
2022-10-09T01:32:00,pth,1.20
2022-10-09T01:33:00,pth,1.20
2022-10-09T01:35:00,pth,2.40
2022-10-09T01:36:00,pth,1.20
2022-10-09T01:38:00,pth,2.40
2022-10-09T01:40:00,pth,1.20
2022-10-09T01:41:00,pth,1.20
2022-10-09T01:43:00,pth,2.40
2022-10-09T01:45:00,pth,2.40
2022-10-09T01:47:00,pth,2.40
2022-10-09T01:49:00,pth,1.20
2022-10-09T01:51:00,pth,2.40
2022-10-09T01:53:00,pth,2.40
2022-10-09T01:55:00,pth,2.40
2022-10-09T01:57:00,pth,2.40
2022-10-09T01:58:00,pth,1.20
2022-10-09T02:00:00,pth,2.40
2022-10-09T02:02:00,pth,2.40
2022-10-09T02:03:00,pth,1.20
2022-10-09T02:05:00,pth,3.60
2022-10-09T02:06:00,pth,1.20
2022-10-09T02:08:00,pth,2.40
2022-10-09T02:09:00,pth,1.20
2022-10-09T02:10:00,pth,1.20
2022-10-09T02:12:00,pth,2.40
2022-10-09T02:14:00,pth,2.40
2022-10-09T02:16:00,pth,1.20
2022-10-09T02:18:00,pth,2.40
2022-10-09T02:20:00,pth,2.40
2022-10-09T02:22:00,pth,2.40
2022-10-09T02:25:00,pth,2.40
2022-10-09T02:27:00,pth,1.20
2022-10-09T02:29:00,pth,2.40
2022-10-09T02:30:00,pth,1.20
2022-10-09T02:32:00,pth,1.20
2022-10-09T02:33:00,pth,1.20
2022-10-09T02:35:00,pth,2.40
2022-10-09T02:37:00,pth,1.20
2022-10-09T02:39:00,pth,2.40
2022-10-09T02:41:00,pth,1.20
2022-10-09T02:43:00,pth,2.40
2022-10-09T02:45:00,pth,2.40
2022-10-09T02:46:00,pth,1.20
2022-10-09T02:48:00,pth,1.20
2022-10-09T02:50:00,pth,2.40
2022-10-09T02:51:00,pth,1.20
2022-10-09T02:53:00,pth,2.40
2022-10-09T02:55:00,pth,1.20
2022-10-09T02:57:00,pth,2.40
2022-10-09T02:59:00,pth,1.20
2022-10-09T03:01:00,pth,2.40
2022-10-09T03:03:00,pth,1.20
2022-10-09T03:05:00,pth,2.40
2022-10-09T03:06:00,pth,1.20
2022-10-09T03:08:00,pth,1.20
2022-10-09T03:09:00,pth,1.20
2022-10-09T03:11:00,pth,1.20
2022-10-09T03:13:00,pth,2.40
2022-10-09T03:15:00,pth,2.40
2022-10-09T03:16:00,pth,1.20
2022-10-09T03:18:00,pth,1.20
2022-10-09T03:19:00,pth,1.20
2022-10-09T03:21:00,pth,2.40
2022-10-09T03:22:00,pth,1.20
2022-10-09T03:24:00,pth,1.20
2022-10-09T03:26:00,pth,2.40
2022-10-09T03:28:00,pth,2.40
2022-10-09T03:31:00,pth,2.40
2022-10-09T03:32:00,pth,1.20
2022-10-09T03:34:00,pth,2.40
2022-10-09T03:36:00,pth,2.40
2022-10-09T03:38:00,pth,1.20
2022-10-09T03:40:00,pth,2.40
2022-10-09T03:41:00,pth,1.20
2022-10-09T03:43:00,pth,2.40
2022-10-09T03:45:00,pth,1.20
2022-10-09T03:47:00,pth,2.40
2022-10-09T03:48:00,pth,1.20
2022-10-09T03:49:00,pth,1.20
2022-10-09T03:51:00,pth,1.20
2022-10-09T03:53:00,pth,2.40
2022-10-09T03:55:00,pth,2.40
2022-10-09T03:57:00,pth,1.20
2022-10-09T03:58:00,pth,1.20
2022-10-09T04:00:00,pth,2.40
2022-10-09T04:02:00,pth,1.20
2022-10-09T04:03:00,pth,1.20
2022-10-09T04:06:00,pth,2.40
2022-10-09T04:07:00,pth,1.20
2022-10-09T04:09:00,pth,1.20
2022-10-09T04:11:00,pth,2.40
2022-10-09T04:12:00,pth,1.20
2022-10-09T04:14:00,pth,1.20
2022-10-09T04:16:00,pth,2.40
2022-10-09T04:18:00,pth,2.40
2022-10-09T04:20:00,pth,1.20
2022-10-09T04:22:00,pth,2.40
2022-10-09T04:24:00,pth,1.20
2022-10-09T04:25:00,pth,1.20
2022-10-09T04:27:00,pth,2.40
2022-10-09T04:28:00,pth,1.20
2022-10-09T04:30:00,pth,1.20
2022-10-09T04:32:00,pth,2.40
2022-10-09T04:34:00,pth,2.40
2022-10-09T04:36:00,pth,1.20
2022-10-09T04:37:00,pth,1.20
2022-10-09T04:38:00,pth,1.20
2022-10-09T04:40:00,pth,1.20
2022-10-09T04:41:00,pth,1.20
2022-10-09T04:43:00,pth,2.40
2022-10-09T04:46:00,pth,2.40
2022-10-09T04:47:00,pth,1.20
2022-10-09T04:49:00,pth,1.20
2022-10-09T04:51:00,pth,1.20
2022-10-09T04:53:00,pth,2.40
2022-10-09T04:55:00,pth,2.40
2022-10-09T04:57:00,pth,1.20
2022-10-09T04:58:00,pth,1.20
2022-10-09T05:00:00,pth,2.40
2022-10-09T05:02:00,pth,1.20
2022-10-09T05:03:00,pth,1.20
2022-10-09T05:05:00,pth,1.20
2022-10-09T05:06:00,pth,1.20
2022-10-09T05:08:00,pth,2.40
2022-10-09T05:10:00,pth,1.20
2022-10-09T05:12:00,pth,2.40
2022-10-09T05:13:00,pth,1.20
2022-10-09T05:15:00,pth,1.20
2022-10-09T05:17:00,pth,2.40
2022-10-09T05:18:00,pth,1.20
2022-10-09T05:20:00,pth,2.40
2022-10-09T05:22:00,pth,1.20
2022-10-09T05:23:00,pth,1.20
2022-10-09T05:25:00,pth,2.40
2022-10-09T05:26:00,pth,1.20
2022-10-09T05:28:00,pth,1.20
2022-10-09T05:29:00,pth,1.20
2022-10-09T05:31:00,pth,2.40
2022-10-09T05:32:00,pth,1.20
2022-10-09T05:34:00,pth,2.40
2022-10-09T05:36:00,pth,1.20
2022-10-09T05:38:00,pth,2.40
2022-10-09T05:40:00,pth,1.20
2022-10-09T05:42:00,pth,2.40
2022-10-09T05:44:00,pth,1.20
2022-10-09T05:46:00,pth,2.40
2022-10-09T05:47:00,pth,1.20
2022-10-09T05:48:00,pth,1.20
2022-10-09T05:50:00,pth,1.20
2022-10-09T05:52:00,pth,2.40
2022-10-09T05:54:00,pth,1.20
2022-10-09T05:55:00,pth,1.20
2022-10-09T05:57:00,pth,1.20
2022-10-09T05:58:00,pth,1.20
2022-10-09T06:00:00,pth,2.40
2022-10-09T06:02:00,pth,1.20
2022-10-09T06:04:00,pth,2.40
2022-10-09T06:05:00,pth,1.20
2022-10-09T06:08:00,pth,2.40
2022-10-09T06:10:00,pth,1.20
2022-10-09T06:12:00,pth,2.40
2022-10-09T06:13:00,pth,1.20
2022-10-09T06:15:00,pth,1.20
2022-10-09T06:16:00,pth,1.20
2022-10-09T06:18:00,pth,1.20
2022-10-09T06:19:00,pth,1.20
2022-10-09T06:21:00,pth,2.40
2022-10-09T06:22:00,pth,1.20
2022-10-09T06:24:00,pth,1.20
2022-10-09T06:25:00,pth,1.20
2022-10-09T06:27:00,pth,1.20
2022-10-09T06:29:00,pth,2.40
2022-10-09T06:30:00,pth,1.20
2022-10-09T06:31:00,pth,1.20
2022-10-09T06:33:00,pth,1.20
2022-10-09T06:35:00,pth,2.40
2022-10-09T06:37:00,pth,1.20
2022-10-09T06:39:00,pth,2.40
2022-10-09T06:41:00,pth,1.20
2022-10-09T06:42:00,pth,1.20
2022-10-09T06:44:00,pth,2.40
2022-10-09T06:46:00,pth,1.20
2022-10-09T06:48:00,pth,2.40
2022-10-09T06:50:00,pth,1.20
2022-10-09T06:51:00,pth,1.20
2022-10-09T06:53:00,pth,1.20
2022-10-09T06:55:00,pth,2.40
2022-10-09T06:57:00,pth,2.40
2022-10-09T07:00:00,pth,2.40
2022-10-09T07:01:00,pth,1.20
2022-10-09T07:02:00,pth,1.20
2022-10-09T07:04:00,pth,2.40
2022-10-09T07:05:00,pth,1.20
2022-10-09T07:07:00,pth,2.40
2022-10-09T07:09:00,pth,2.40
2022-10-09T07:11:00,pth,2.40
2022-10-09T07:13:00,pth,2.40
2022-10-09T07:15:00,pth,1.20
2022-10-09T07:16:00,pth,1.20
2022-10-09T07:18:00,pth,2.40
2022-10-09T07:20:00,pth,2.40
2022-10-09T07:22:00,pth,1.20
2022-10-09T07:23:00,pth,1.20
2022-10-09T07:25:00,pth,1.20
2022-10-09T07:27:00,pth,2.40
2022-10-09T07:29:00,pth,1.20
2022-10-09T07:30:00,pth,1.20
2022-10-09T07:32:00,pth,2.40
2022-10-09T07:33:00,pth,2.40
2022-10-09T07:35:00,pth,2.40
2022-10-09T07:37:00,pth,1.20
2022-10-09T07:38:00,pth,1.20
2022-10-09T07:40:00,pth,1.20
2022-10-09T07:42:00,pth,2.40
2022-10-09T07:43:00,pth,1.20
2022-10-09T07:45:00,pth,1.20
2022-10-09T07:46:00,pth,1.20
2022-10-09T07:48:00,pth,1.20
2022-10-09T07:49:00,pth,1.20
2022-10-09T07:51:00,pth,1.20
2022-10-09T07:52:00,pth,1.20
2022-10-09T07:54:00,pth,2.40
2022-10-09T07:55:00,pth,1.20
2022-10-09T07:57:00,pth,1.20
2022-10-09T07:58:00,pth,1.20
2022-10-09T08:00:00,pth,2.40
2022-10-09T08:02:00,pth,1.20
2022-10-09T08:03:00,pth,1.20
2022-10-09T08:05:00,pth,2.40
2022-10-09T08:07:00,pth,2.40
2022-10-09T08:09:00,pth,1.20
2022-10-09T08:10:00,pth,1.20
2022-10-09T08:11:00,pth,1.20
2022-10-09T08:13:00,pth,2.40
2022-10-09T08:14:00,pth,1.20
2022-10-09T08:16:00,pth,1.20
2022-10-09T08:18:00,pth,2.40
2022-10-09T08:20:00,pth,1.20
2022-10-09T08:21:00,pth,1.20
2022-10-09T08:23:00,pth,1.20
2022-10-09T08:25:00,pth,1.20
2022-10-09T08:27:00,pth,2.40
2022-10-09T08:30:00,pth,2.40
2022-10-09T08:32:00,pth,1.20
2022-10-09T08:34:00,pth,1.20
2022-10-09T08:35:00,pth,1.20
2022-10-09T08:37:00,pth,1.20
2022-10-09T08:39:00,pth,1.20
2022-10-09T08:41:00,pth,1.20
2022-10-09T08:43:00,pth,2.40
2022-10-09T08:45:00,pth,1.20
2022-10-09T08:46:00,pth,1.20
2022-10-09T08:48:00,pth,1.20
2022-10-09T08:49:00,pth,1.20
2022-10-09T08:51:00,pth,1.20
2022-10-09T08:53:00,pth,1.20
2022-10-09T08:55:00,pth,2.40
2022-10-09T08:57:00,pth,1.20
2022-10-09T08:58:00,pth,1.20
2022-10-09T09:00:00,pth,1.20
2022-10-09T09:02:00,pth,1.20
2022-10-09T09:04:00,pth,2.40
2022-10-09T09:06:00,pth,1.20
2022-10-09T09:08:00,pth,2.40
2022-10-09T09:10:00,pth,1.20
2022-10-09T09:12:00,pth,1.20
2022-10-09T09:13:00,pth,1.20
2022-10-09T09:15:00,pth,1.20
2022-10-09T09:17:00,pth,2.40
2022-10-09T09:19:00,pth,1.20
2022-10-09T09:20:00,pth,1.20
2022-10-09T09:22:00,pth,1.20
2022-10-09T09:24:00,pth,1.20
2022-10-09T09:26:00,pth,2.40
2022-10-09T09:29:00,pth,2.40
2022-10-09T09:32:00,pth,1.20
2022-10-09T09:33:00,pth,1.20
2022-10-09T09:35:00,pth,1.20
2022-10-09T09:37:00,pth,2.40
2022-10-09T09:38:00,pth,1.20
2022-10-09T09:40:00,pth,1.20
2022-10-09T09:41:00,pth,1.20
2022-10-09T09:43:00,pth,1.20
2022-10-09T09:44:00,pth,1.20
2022-10-09T09:46:00,pth,1.20
2022-10-09T09:48:00,pth,2.40
2022-10-09T09:50:00,pth,1.20
2022-10-09T09:51:00,pth,1.20
2022-10-09T09:52:00,pth,2.40
2022-10-09T09:54:00,pth,2.40
2022-10-09T09:56:00,pth,1.20
2022-10-09T09:58:00,pth,2.40
2022-10-09T10:00:00,pth,1.20
2022-10-09T10:02:00,pth,2.40
2022-10-09T10:04:00,pth,1.20
2022-10-09T10:06:00,pth,1.20
2022-10-09T10:08:00,pth,1.20
2022-10-09T10:10:00,pth,1.20
2022-10-09T10:13:00,pth,2.40
2022-10-09T10:15:00,pth,1.20
2022-10-09T10:17:00,pth,1.20
2022-10-09T10:20:00,pth,1.20
2022-10-09T10:22:00,pth,1.20
2022-10-09T10:24:00,pth,2.40
2022-10-09T10:26:00,pth,1.20
2022-10-09T10:28:00,pth,1.20
2022-10-09T10:31:00,pth,1.20
2022-10-09T10:32:00,pth,1.20
2022-10-09T10:34:00,pth,1.20
2022-10-09T10:36:00,pth,1.20
2022-10-09T10:37:00,pth,1.20
2022-10-09T10:39:00,pth,1.20
2022-10-09T10:41:00,pth,1.20
2022-10-09T10:44:00,pth,2.40
2022-10-09T10:46:00,pth,1.20
2022-10-09T10:48:00,pth,1.20
2022-10-09T10:50:00,pth,2.40
2022-10-09T10:53:00,pth,2.40
2022-10-09T10:55:00,pth,1.20
2022-10-09T10:57:00,pth,1.20
2022-10-09T10:58:00,pth,1.20
2022-10-09T11:00:00,pth,1.20
2022-10-09T11:02:00,pth,1.20
2022-10-09T11:04:00,pth,1.20
2022-10-09T11:06:00,pth,2.40
2022-10-09T11:09:00,pth,2.40
2022-10-09T11:11:00,pth,2.40
2022-10-09T11:13:00,pth,1.20
2022-10-09T11:14:00,pth,1.20
2022-10-09T11:16:00,pth,1.20
2022-10-09T11:18:00,pth,1.20
2022-10-09T11:20:00,pth,1.20
2022-10-09T11:22:00,pth,1.20
2022-10-09T11:25:00,pth,1.20
2022-10-09T11:28:00,pth,1.20
2022-10-09T11:29:00,pth,1.20
2022-10-09T11:31:00,pth,1.20
2022-10-09T11:33:00,pth,1.20
2022-10-09T11:35:00,pth,1.20
2022-10-09T11:37:00,pth,1.20
2022-10-09T11:40:00,pth,2.40
2022-10-09T11:42:00,pth,1.20
2022-10-09T11:44:00,pth,2.40
2022-10-09T11:46:00,pth,1.20
2022-10-09T11:48:00,pth,1.20
2022-10-09T11:50:00,pth,2.40
2022-10-09T11:53:00,pth,1.20
2022-10-09T11:54:00,pth,1.20
2022-10-09T11:56:00,pth,1.20
2022-10-09T11:58:00,pth,1.20
2022-10-09T11:59:00,pth,1.20
2022-10-09T12:01:00,pth,1.20
2022-10-09T12:03:00,pth,1.20
2022-10-09T12:05:00,pth,1.20
2022-10-09T12:07:00,pth,1.20
2022-10-09T12:09:00,pth,1.20
2022-10-09T12:11:00,pth,1.20
2022-10-09T12:13:00,pth,1.20
2022-10-09T12:16:00,pth,1.20
2022-10-09T12:18:00,pth,1.20
2022-10-09T12:20:00,pth,1.20
2022-10-09T12:22:00,pth,2.40
2022-10-09T12:24:00,pth,1.20
2022-10-09T12:25:00,pth,1.20
2022-10-09T12:27:00,pth,1.20
2022-10-09T12:28:00,pth,1.20
2022-10-09T12:30:00,pth,1.20
2022-10-09T12:31:00,pth,1.20
2022-10-09T12:33:00,pth,1.20
2022-10-09T12:36:00,pth,1.20
2022-10-09T12:37:00,pth,1.20
2022-10-09T12:39:00,pth,1.20
2022-10-09T12:41:00,pth,1.20
2022-10-09T12:43:00,pth,2.40
2022-10-09T12:45:00,pth,1.20
2022-10-09T12:47:00,pth,1.20
2022-10-09T12:49:00,pth,2.40
2022-10-09T12:51:00,pth,1.20
2022-10-09T12:52:00,pth,1.20
2022-10-09T12:54:00,pth,1.20
2022-10-09T12:56:00,pth,1.20
2022-10-09T12:58:00,pth,1.20
2022-10-09T13:00:00,pth,1.20
2022-10-09T13:03:00,pth,1.20
2022-10-09T13:05:00,pth,2.40
2022-10-09T13:07:00,pth,1.20
2022-10-09T13:09:00,pth,1.20
2022-10-09T13:12:00,pth,2.40
2022-10-09T13:14:00,pth,1.20
2022-10-09T13:15:00,pth,1.20
2022-10-09T13:18:00,pth,1.20
2022-10-09T13:20:00,pth,2.40
2022-10-09T13:22:00,pth,1.20
2022-10-09T13:25:00,pth,1.20
2022-10-09T13:27:00,pth,2.40
2022-10-09T13:29:00,pth,1.20
2022-10-09T13:31:00,pth,1.20
2022-10-09T13:33:00,pth,1.20
2022-10-09T13:35:00,pth,1.20
2022-10-09T13:36:00,pth,1.20
2022-10-09T13:39:00,pth,1.20
2022-10-09T13:41:00,pth,1.20
2022-10-09T13:43:00,pth,2.40
2022-10-09T13:46:00,pth,2.40
2022-10-09T13:48:00,pth,1.20
2022-10-09T13:50:00,pth,2.40
2022-10-09T13:52:00,pth,1.20
2022-10-09T13:54:00,pth,2.40
2022-10-09T13:55:00,pth,1.20
2022-10-09T13:57:00,pth,2.40
2022-10-09T13:59:00,pth,1.20
2022-10-09T14:01:00,pth,2.40
2022-10-09T14:03:00,pth,3.60
2022-10-09T14:05:00,pth,2.40
2022-10-09T14:06:00,pth,2.40
2022-10-09T14:08:00,pth,2.40
2022-10-09T14:09:00,pth,1.20
2022-10-09T14:10:00,pth,2.40
2022-10-09T14:11:00,pth,1.20
2022-10-09T14:13:00,pth,1.20
2022-10-09T14:15:00,pth,2.40
2022-10-09T14:17:00,pth,1.20
2022-10-09T14:19:00,pth,2.40
2022-10-09T14:20:00,pth,1.20
2022-10-09T14:22:00,pth,2.40
2022-10-09T14:24:00,pth,2.40
2022-10-09T14:27:00,pth,3.60
2022-10-09T14:29:00,pth,13.20
2022-10-09T14:31:00,pth,13.20
2022-10-09T14:33:00,pth,12.00
2022-10-09T14:36:00,pth,20.40
2022-10-09T14:38:00,pth,12.00
2022-10-09T14:40:00,pth,12.00
2022-10-09T14:42:00,pth,13.20
2022-10-09T14:43:00,pth,6.00
2022-10-09T14:45:00,pth,12.00
2022-10-09T14:47:00,pth,12.00
2022-10-09T14:49:00,pth,12.00
2022-10-09T14:50:00,pth,4.80
2022-10-09T14:52:00,pth,8.40
2022-10-09T14:54:00,pth,13.20
2022-10-09T14:55:00,pth,2.40
2022-10-09T14:56:00,pth,4.80
2022-10-09T14:58:00,pth,14.40
2022-10-09T14:59:00,pth,2.40
2022-10-09T15:01:00,pth,12.00
2022-10-09T15:02:00,pth,4.80
2022-10-09T15:03:00,pth,1.20
2022-10-09T15:04:00,pth,7.20
2022-10-09T15:06:00,pth,8.40
2022-10-09T15:08:00,pth,12.00
2022-10-09T15:10:00,pth,8.40
2022-10-09T15:12:00,pth,9.60
2022-10-09T15:14:00,pth,12.00
2022-10-09T15:15:00,pth,1.20
2022-10-09T15:17:00,pth,13.20
2022-10-09T15:19:00,pth,7.20
2022-10-09T15:21:00,pth,13.20
2022-10-09T15:23:00,pth,7.20
2022-10-09T15:25:00,pth,14.40
2022-10-09T15:26:00,pth,6.00
2022-10-09T15:28:00,pth,6.00
2022-10-09T15:30:00,pth,4.80
2022-10-09T15:31:00,pth,3.60
2022-10-09T15:33:00,pth,3.60
2022-10-09T15:35:00,pth,4.80
2022-10-09T15:37:00,pth,3.60
2022-10-09T15:39:00,pth,3.60
2022-10-09T15:41:00,pth,4.80
2022-10-09T15:43:00,pth,4.80
2022-10-09T15:45:00,pth,6.00
2022-10-09T15:47:00,pth,3.60
2022-10-09T15:48:00,pth,2.40
2022-10-09T15:50:00,pth,2.40
2022-10-09T15:51:00,pth,1.20
2022-10-09T15:53:00,pth,2.40
2022-10-09T15:55:00,pth,2.40
2022-10-09T15:57:00,pth,1.20
2022-10-09T15:58:00,pth,3.60
2022-10-09T15:59:00,pth,6.00
2022-10-09T16:01:00,pth,13.20
2022-10-09T16:03:00,pth,13.20
2022-10-09T16:05:00,pth,13.20
2022-10-09T16:06:00,pth,6.00
2022-10-09T16:07:00,pth,7.20
2022-10-09T16:09:00,pth,12.00
2022-10-09T16:10:00,pth,7.20
2022-10-09T16:12:00,pth,12.00
2022-10-09T16:14:00,pth,13.20
2022-10-09T16:15:00,pth,6.00
2022-10-09T16:17:00,pth,13.20
2022-10-09T16:19:00,pth,12.00
2022-10-09T16:21:00,pth,13.20
2022-10-09T16:22:00,pth,6.00
2022-10-09T16:24:00,pth,12.00
2022-10-09T16:26:00,pth,13.20
2022-10-09T16:27:00,pth,7.20
2022-10-09T16:29:00,pth,12.00
2022-10-09T16:31:00,pth,9.60
2022-10-09T16:32:00,pth,7.20
2022-10-09T16:34:00,pth,8.40
2022-10-09T16:36:00,pth,12.00
2022-10-09T16:38:00,pth,7.20
2022-10-09T16:40:00,pth,10.80
2022-10-09T16:42:00,pth,10.80
2022-10-09T16:44:00,pth,6.00
2022-10-09T16:45:00,pth,7.20
2022-10-09T16:47:00,pth,7.20
2022-10-09T16:49:00,pth,9.60
2022-10-09T16:50:00,pth,3.60
2022-10-09T16:52:00,pth,10.80
2022-10-09T16:53:00,pth,3.60
2022-10-09T16:55:00,pth,10.80
2022-10-09T16:57:00,pth,2.40
2022-10-09T16:59:00,pth,3.60
2022-10-09T17:01:00,pth,2.40
2022-10-09T17:03:00,pth,2.40
2022-10-09T17:05:00,pth,3.60
2022-10-09T17:06:00,pth,1.20
2022-10-09T17:08:00,pth,2.40
2022-10-09T17:09:00,pth,1.20
2022-10-09T17:10:00,pth,1.20
2022-10-09T17:12:00,pth,1.20
2022-10-09T17:14:00,pth,1.20
2022-10-09T17:15:00,pth,1.20
2022-10-09T17:17:00,pth,2.40
2022-10-09T17:19:00,pth,12.00
2022-10-09T17:21:00,pth,13.20
2022-10-09T17:23:00,pth,13.20
2022-10-09T17:24:00,pth,6.00
2022-10-09T17:26:00,pth,14.40
2022-10-09T17:28:00,pth,13.20
2022-10-09T17:30:00,pth,13.20
2022-10-09T17:32:00,pth,12.00
2022-10-09T17:33:00,pth,7.20
2022-10-09T17:35:00,pth,13.20
2022-10-09T17:37:00,pth,14.40
2022-10-09T17:39:00,pth,13.20
2022-10-09T17:41:00,pth,13.20
2022-10-09T17:42:00,pth,7.20
2022-10-09T17:44:00,pth,15.60
2022-10-09T17:46:00,pth,15.60
2022-10-09T17:48:00,pth,14.40
2022-10-09T17:50:00,pth,14.40
2022-10-09T17:52:00,pth,15.60
2022-10-09T17:53:00,pth,9.60
2022-10-09T17:55:00,pth,15.60
2022-10-09T17:56:00,pth,7.20
2022-10-09T17:57:00,pth,7.20
2022-10-09T17:59:00,pth,15.60
2022-10-09T18:00:00,pth,7.20
2022-10-09T18:01:00,pth,7.20
2022-10-09T18:03:00,pth,14.40
2022-10-09T18:05:00,pth,13.20
2022-10-09T18:06:00,pth,7.20
2022-10-09T18:08:00,pth,12.00
2022-10-09T18:10:00,pth,13.20
2022-10-09T18:12:00,pth,13.20
2022-10-09T18:13:00,pth,6.00
2022-10-09T18:15:00,pth,13.20
2022-10-09T18:17:00,pth,8.40
2022-10-09T18:18:00,pth,1.20
2022-10-09T18:19:00,pth,1.20
2022-10-09T18:21:00,pth,2.40
2022-10-09T18:23:00,pth,2.40
2022-10-09T18:25:00,pth,3.60
2022-10-09T18:27:00,pth,2.40
2022-10-09T18:29:00,pth,2.40
2022-10-09T18:31:00,pth,6.00
2022-10-09T18:32:00,pth,6.00
2022-10-09T18:34:00,pth,14.40
2022-10-09T18:36:00,pth,13.20
2022-10-09T18:37:00,pth,7.20
2022-10-09T18:39:00,pth,14.40
2022-10-09T18:40:00,pth,7.20
2022-10-09T18:42:00,pth,14.40
2022-10-09T18:43:00,pth,7.20
2022-10-09T18:45:00,pth,14.40
2022-10-09T18:47:00,pth,14.40
2022-10-09T18:49:00,pth,13.20
2022-10-09T18:51:00,pth,13.20
2022-10-09T18:52:00,pth,7.20
2022-10-09T18:54:00,pth,13.20
2022-10-09T18:56:00,pth,13.20
2022-10-09T18:58:00,pth,14.40
2022-10-09T19:00:00,pth,13.20
2022-10-09T19:02:00,pth,12.00
2022-10-09T19:03:00,pth,6.00
2022-10-09T19:05:00,pth,13.20
2022-10-09T19:07:00,pth,14.40
2022-10-09T19:09:00,pth,13.20
2022-10-09T19:11:00,pth,12.00
2022-10-09T19:12:00,pth,7.20
2022-10-09T19:14:00,pth,13.20
2022-10-09T19:15:00,pth,6.00
2022-10-09T19:17:00,pth,4.80
2022-10-09T19:19:00,pth,13.20
2022-10-09T19:21:00,pth,13.20
2022-10-09T19:22:00,pth,3.60
2022-10-09T19:23:00,pth,1.20
2022-10-09T19:25:00,pth,12.00
2022-10-09T19:27:00,pth,13.20
2022-10-09T19:28:00,pth,2.40
2022-10-09T19:30:00,pth,8.40
2022-10-09T19:32:00,pth,8.40
2022-10-09T19:34:00,pth,12.00
2022-10-09T19:36:00,pth,15.60
2022-10-09T19:38:00,pth,14.40
2022-10-09T19:40:00,pth,14.40
2022-10-09T19:41:00,pth,7.20
2022-10-09T19:43:00,pth,15.60
2022-10-09T19:45:00,pth,13.20
2022-10-09T19:47:00,pth,13.20
2022-10-09T19:49:00,pth,13.20
2022-10-09T19:51:00,pth,13.20
2022-10-09T19:53:00,pth,13.20
2022-10-09T19:55:00,pth,14.40
2022-10-09T19:57:00,pth,13.20
2022-10-09T19:59:00,pth,13.20
2022-10-09T20:00:00,pth,7.20
2022-10-09T20:01:00,pth,6.00
2022-10-09T20:02:00,pth,6.00
2022-10-09T20:04:00,pth,13.20
2022-10-09T20:05:00,pth,7.20
2022-10-09T20:07:00,pth,12.00
2022-10-09T20:09:00,pth,12.00
2022-10-09T20:11:00,pth,10.80
2022-10-09T20:13:00,pth,2.40
2022-10-09T20:15:00,pth,2.40
2022-10-09T20:17:00,pth,3.60
2022-10-09T20:19:00,pth,2.40
2022-10-09T20:21:00,pth,2.40
2022-10-09T20:22:00,pth,1.20
2022-10-09T20:23:00,pth,1.20
2022-10-09T20:25:00,pth,2.40
2022-10-09T20:27:00,pth,2.40
2022-10-09T20:29:00,pth,1.20
2022-10-09T20:31:00,pth,2.40
2022-10-09T20:33:00,pth,2.40
2022-10-09T20:35:00,pth,2.40
2022-10-09T20:36:00,pth,1.20
2022-10-09T20:38:00,pth,2.40
2022-10-09T20:39:00,pth,1.20
2022-10-09T20:40:00,pth,1.20
2022-10-09T20:42:00,pth,3.60
2022-10-09T20:43:00,pth,1.20
2022-10-09T20:44:00,pth,1.20
2022-10-09T20:46:00,pth,2.40
2022-10-09T20:48:00,pth,2.40
2022-10-09T20:49:00,pth,1.20
2022-10-09T20:51:00,pth,3.60
2022-10-09T20:53:00,pth,2.40
2022-10-09T20:55:00,pth,2.40
2022-10-09T20:57:00,pth,2.40
2022-10-09T20:59:00,pth,1.20
2022-10-09T21:00:00,pth,1.20
2022-10-09T21:02:00,pth,2.40
2022-10-09T21:03:00,pth,1.20
2022-10-09T21:05:00,pth,3.60
2022-10-09T21:06:00,pth,1.20
2022-10-09T21:07:00,pth,1.20
2022-10-09T21:09:00,pth,2.40
2022-10-09T21:11:00,pth,2.40
2022-10-09T21:13:00,pth,2.40
2022-10-09T21:15:00,pth,3.60
2022-10-09T21:16:00,pth,1.20
2022-10-09T21:17:00,pth,1.20
2022-10-09T21:19:00,pth,2.40
2022-10-09T21:21:00,pth,3.60
2022-10-09T21:23:00,pth,2.40
2022-10-09T21:25:00,pth,3.60
2022-10-09T21:26:00,pth,1.20
2022-10-09T21:28:00,pth,3.60
2022-10-09T21:29:00,pth,1.20
2022-10-09T21:31:00,pth,3.60
2022-10-09T21:33:00,pth,2.40
2022-10-09T21:34:00,pth,2.40
2022-10-09T21:36:00,pth,2.40
2022-10-09T21:37:00,pth,2.40
2022-10-09T21:39:00,pth,2.40
2022-10-09T21:41:00,pth,3.60
2022-10-09T21:43:00,pth,2.40
2022-10-09T21:44:00,pth,1.20
2022-10-09T21:45:00,pth,1.20
2022-10-09T21:47:00,pth,2.40
2022-10-09T21:49:00,pth,2.40
2022-10-09T21:50:00,pth,1.20
2022-10-09T21:52:00,pth,2.40
2022-10-09T21:54:00,pth,2.40
2022-10-09T21:56:00,pth,2.40
2022-10-09T21:57:00,pth,1.20
2022-10-09T21:59:00,pth,2.40
2022-10-09T22:01:00,pth,3.60
2022-10-09T22:03:00,pth,2.40
2022-10-09T22:04:00,pth,1.20
2022-10-09T22:06:00,pth,2.40
2022-10-09T22:08:00,pth,3.60
2022-10-09T22:10:00,pth,2.40
2022-10-09T22:12:00,pth,2.40
2022-10-09T22:13:00,pth,1.20
2022-10-09T22:15:00,pth,2.40
2022-10-09T22:16:00,pth,1.20
2022-10-09T22:18:00,pth,2.40
2022-10-09T22:20:00,pth,2.40
2022-10-09T22:21:00,pth,2.40
2022-10-09T22:23:00,pth,2.40
2022-10-09T22:25:00,pth,2.40
2022-10-09T22:26:00,pth,1.20
2022-10-09T22:28:00,pth,2.40
2022-10-09T22:30:00,pth,2.40
2022-10-09T22:32:00,pth,2.40
2022-10-09T22:34:00,pth,2.40
2022-10-09T22:36:00,pth,2.40
2022-10-09T22:38:00,pth,1.20
2022-10-09T22:40:00,pth,3.60
2022-10-09T22:42:00,pth,2.40
2022-10-09T22:44:00,pth,2.40
2022-10-09T22:45:00,pth,1.20
2022-10-09T22:47:00,pth,2.40
2022-10-09T22:49:00,pth,2.40
2022-10-09T22:52:00,pth,2.40
2022-10-09T22:54:00,pth,2.40
2022-10-09T22:56:00,pth,2.40
2022-10-09T22:58:00,pth,2.40
2022-10-09T23:00:00,pth,2.40
2022-10-09T23:01:00,pth,1.20
2022-10-09T23:03:00,pth,2.40
2022-10-09T23:05:00,pth,2.40
2022-10-09T23:06:00,pth,1.20
2022-10-09T23:08:00,pth,2.40
2022-10-09T23:09:00,pth,1.20
2022-10-09T23:11:00,pth,3.60
2022-10-09T23:13:00,pth,2.40
2022-10-09T23:14:00,pth,2.40
2022-10-09T23:16:00,pth,2.40
2022-10-09T23:17:00,pth,1.20
